DW8587 Weather Reports


time (UTC)temp
C
wind
direction
speed
KPH
gust
KPH
rain 1hr
cm
rain 24hr
cm
rain mn
cm
humidity
%
barometer
mb
20260904043030 18 28 4.8 12.9 0.00 0.00 0.00 79 1017.5
20260904041536 18 9 3.2 8.0 0.00 0.00 0.00 79 1017.6
20260904040029 18 39 6.4 12.9 0.00 0.00 0.00 79 1017.5
20260904034528 18 43 4.8 8.0 0.00 0.00 0.00 79 1017.5
20260904033027 18 32 6.4 9.7 0.00 0.00 0.00 79 1017.6
20260904031526 18 44 8.0 12.9 0.00 0.00 0.00 79 1017.7
20260904030027 19 40 4.8 11.3 0.00 0.00 0.00 79 1017.6
20260904024524 18 38 8.0 9.7 0.00 0.00 0.00 80 1017.6
20260904023023 19 22 6.4 9.7 0.00 0.00 0.00 79 1017.7
20260904021521 20 28 3.2 6.4 0.00 0.00 0.00 78 1017.6
20260904020032 20 34 3.2 4.8 0.00 0.00 0.00 78 1017.5
20260904014518 20 34 1.6 8.0 0.00 0.00 0.00 78 1017.5
20260904013017 20 39 6.4 8.0 0.00 0.00 0.00 78 1017.4
20260904011516 20 44 8.0 11.3 0.00 0.00 0.00 78 1017.3
20260904010017 20 355 4.8 8.0 0.00 0.00 0.00 78 1017.3
20260904004515 20 41 4.8 8.0 0.00 0.00 0.00 78 1017.4
20260904003013 20 355 3.2 4.8 0.00 0.00 0.00 77 1017.5
20260904001512 20 32 3.2 4.8 0.00 0.00 0.00 77 1017.5
20260904000009 21 27 1.6 4.8 0.00 0.00 0.00 76 1017.6
20260903234510 21 5 1.6 4.8 0.00 0.00 0.00 75 1017.7
20260903233008 21 34 6.4 9.7 0.00 0.00 0.00 75 1017.7
20260903231506 21 34 4.8 9.7 0.00 0.00 0.00 76 1017.7
20260903230005 21 39 6.4 9.7 0.00 0.00 0.00 76 1017.5
20260903224503 21 44 4.8 6.4 0.00 0.00 0.00 76 1017.4
20260903223002 21 355 3.2 6.4 0.00 0.00 0.00 75 1017.6
20260903221503 21 34 4.8 9.7 0.00 0.00 0.00 75 1017.6
20260903220106 21 26 4.8 12.9 0.00 0.00 0.00 75 1017.7
20260903214557 21 38 4.8 8.0 0.00 0.00 0.00 74 1017.7
20260903213057 22 36 4.8 8.0 0.00 0.00 0.00 74 1017.6
20260903211608 22 42 3.2 8.0 0.00 0.00 0.00 74 1017.5
20260903210056 22 28 6.4 9.7 0.00 0.00 0.00 74 1017.5
20260903204601 22 346 3.2 9.7 0.00 0.00 0.00 74 1017.5
20260903203055 22 18 3.2 8.0 0.00 0.00 0.00 74 1017.4
20260903201555 22 41 3.2 6.4 0.00 0.00 0.00 74 1017.3
20260903200059 23 9 1.6 4.8 0.00 0.00 0.00 72 1017.3
20260903194555 23 39 1.6 6.4 0.00 0.00 0.00 71 1017.2
20260903193058 23 41 4.8 8.0 0.00 0.00 0.00 71 1017.2
20260903191601 23 38 4.8 9.7 0.00 0.00 0.00 70 1017.1
20260903190053 24 28 3.2 4.8 0.00 0.00 0.00 68 1016.8
20260903184553 25 38 3.2 4.8 0.00 0.00 0.00 66 1016.7
20260903183114 26 36 3.2 6.4 0.00 0.00 0.00 63 1016.5
20260903181557 27 267 1.6 3.2 0.00 0.00 0.00 59 1016.4
20260903180049 28 267 0.0 1.6 0.00 0.00 0.00 56 1016.3
20260903174548 28 267 0.0 3.2 0.00 0.00 0.00 52 1016.2
20260903173056 29 267 0.0 0.0 0.00 0.00 0.00 51 1016.1
20260903171556 29 267 0.0 1.6 0.00 0.00 0.00 48 1016.2
20260903170047 30 267 0.0 4.8 0.00 0.00 0.00 48 1016.2
20260903164547 30 267 1.6 8.0 0.00 0.00 0.00 47 1016.1
20260903163047 30 319 0.0 8.0 0.00 0.00 0.00 45 1016.1
20260903161601 31 246 4.8 12.9 0.00 0.00 0.00 44 1016.1
20260903160045 32 302 3.2 9.7 0.00 0.00 0.00 41 1016.1
20260903154545 32 275 3.2 9.7 0.00 0.00 0.00 38 1016.2
20260903153043 32 308 4.8 12.9 0.00 0.00 0.00 39 1016.1
20260903151546 32 301 3.2 11.3 0.00 0.00 0.00 40 1016.1
20260903150042 31 323 1.6 12.9 0.00 0.00 0.00 43 1016.3
20260903144641 32 310 4.8 14.5 0.00 0.00 0.00 43 1016.3
20260903143043 32 296 4.8 9.7 0.00 0.00 0.00 41 1016.3
20260903141537 32 291 1.6 12.9 0.00 0.00 0.00 41 1016.5
20260903140036 31 314 4.8 11.3 0.00 0.00 0.00 39 1016.7
20260903134542 31 269 1.6 6.4 0.00 0.00 0.00 42 1016.8
20260903133041 31 297 3.2 8.0 0.00 0.00 0.00 43 1016.9
20260903131538 31 279 3.2 11.3 0.00 0.00 0.00 45 1017.0
20260903130032 31 246 1.6 9.7 0.00 0.00 0.00 46 1017.2
20260903124548 31 61 3.2 14.5 0.00 0.00 0.00 46 1017.4
20260903123028 31 323 1.6 9.7 0.00 0.00 0.00 46 1017.4
20260903121540 30 301 1.6 12.9 0.00 0.00 0.00 47 1017.6
20260903120025 30 52 1.6 9.7 0.00 0.00 0.00 47 1017.6
20260903114524 30 148 3.2 12.9 0.00 0.00 0.00 48 1017.8
20260903113022 29 140 4.8 11.3 0.00 0.00 0.00 47 1017.8
20260903111520 30 257 4.8 11.3 0.00 0.00 0.00 47 1017.8
20260903110018 29 206 3.2 8.0 0.00 0.00 0.00 46 1018.0
20260903104524 28 140 4.8 11.3 0.00 0.00 0.00 45 1018.1
20260903103013 28 86 3.2 11.3 0.00 0.00 0.00 50 1018.4
20260903101518 28 107 4.8 9.7 0.00 0.00 0.00 50 1018.6
20260903100019 28 87 3.2 6.4 0.00 0.00 0.00 51 1018.8
20260903094505 28 173 0.0 9.7 0.00 0.00 0.00 54 1018.7
20260903093002 28 279 1.6 8.0 0.00 0.00 0.00 53 1018.7
20260903091605 27 39 4.8 9.7 0.00 0.00 0.00 54 1018.7
20260903090054 27 112 3.2 9.7 0.00 0.00 0.00 55 1018.8
20260903084550 27 115 4.8 8.0 0.00 0.00 0.00 57 1018.8
20260903083047 26 351 1.6 11.3 0.00 0.00 0.00 57 1018.6
20260903081547 26 52 6.4 9.7 0.00 0.00 0.00 55 1018.8
20260903080039 26 36 4.8 9.7 0.00 0.00 0.00 58 1018.7
20260903074534 26 37 6.4 9.7 0.00 0.00 0.00 56 1018.6
20260903073042 25 349 3.2 8.0 0.00 0.00 0.00 59 1018.4
20260903071528 24 5 3.2 6.4 0.00 0.00 0.00 62 1018.5
20260903070021 23 46 3.2 6.4 0.00 0.00 0.00 65 1018.4
20260903064516 22 49 4.8 8.0 0.00 0.00 0.00 66 1018.5
20260903063012 21 345 3.2 8.0 0.00 0.00 0.00 69 1018.5
20260903061507 21 355 4.8 12.9 0.00 0.00 0.00 72 1018.5
20260903060003 20 13 4.8 8.0 0.00 0.00 0.00 74 1018.3
20260903054558 19 22 4.8 8.0 0.00 0.00 0.00 76 1018.1
20260903053057 18 37 4.8 8.0 0.00 0.00 0.00 78 1018.0
20260903051551 18 41 8.0 11.3 0.00 0.00 0.00 79 1017.9
20260903050049 18 41 6.4 12.9 0.00 0.00 0.00 80 1017.7
20260903044548 18 46 4.8 6.4 0.00 0.00 0.00 80 1017.5